Coatesville, PA

1:22 AM EDT on October 22, 2017 (GMT -0400)
Chester County Carlson

Weather History for KMQS - November, 2011

Change the Weather History Date:

Thursday, November 24, 2011

  Actual Average (KILG) Record (KILG)
Temperature  
Mean Temperature 44 °F -  
Max Temperature 55 °F 52 °F 73 °F (1979)
Min Temperature 32 °F 34 °F 16 °F (1956)
Degree Days  
Heating Degree Days 22    
Moisture  
Dew Point 35 °F    
Average Humidity 69    
Maximum Humidity 100    
Minimum Humidity 51    
Precipitation  
Precipitation 0.00 in - - ()
Sea Level Pressure  
Sea Level Pressure 30.19 in    
Wind  
Wind Speed 10 mph (WNW)    
Max Wind Speed 17 mph    
Max Gust Speed 23 mph    
Visibility 10 miles    
Events      
Averages and records for this station are not official NWS values.
T = Trace of Precipitation, MM = Missing Value Source: NWS Daily Summary

Daily Weather History Graph

Daily Weather History Graph

Search for Another Location

Airport or City:

Trip Planner

Search our weather history database for the weather conditions in past years. The results will help you decide how hot, cold, wet, or windy it might be!

Date:

Astronomy

Nov. 24, 2011 Rise Set
Actual Time 6:58 AM EST 4:41 PM EST
Civil Twilight 6:28 AM EST 5:11 PM EST
Nautical Twilight 5:55 AM EST 5:44 PM EST
Astronomical Twilight 5:23 AM EST 6:16 PM EST
Moon 6:13 AM EST (11/24) 4:10 PM EST (11/24)
Length of Visible Light 10h 42m
Length of Day
9h 43m
Waning Crescent, 0% of the Moon is Illuminated
Nov 24
Waning Crescent
Nov 25
New
Dec 2
First Quarter
Dec 10
Full
Dec 17
Last Quarter

Hourly Weather History & Observations

Time (EST) Temp. Windchill Dew Point Humidity Pressure Visibility Wind Dir Wind Speed Gust Speed Precip Events Conditions
12:15 AM 37.4 °F 29.3 °F 32.0 °F 81% 30.07 in 10.0 mi NNW 12.7 mph 18.4 mph N/A   Clear
12:35 AM 37.4 °F 28.5 °F 32.0 °F 81% 30.07 in 10.0 mi NW 15.0 mph 23.0 mph N/A   Clear
12:55 AM 37.4 °F 28.5 °F 32.0 °F 81% 30.09 in 10.0 mi NNW 15.0 mph - N/A   Clear
1:15 AM 37.4 °F 29.3 °F 32.0 °F 81% 30.10 in 10.0 mi NW 12.7 mph - N/A   Clear
1:35 AM 37.4 °F 30.3 °F 32.0 °F 81% 30.10 in 10.0 mi NW 10.4 mph - N/A   Clear
1:55 AM 37.4 °F 30.8 °F 32.0 °F 81% 30.11 in 10.0 mi NNW 9.2 mph - N/A   Clear
2:15 AM 37.4 °F 29.8 °F 32.0 °F 81% 30.11 in 10.0 mi NW 11.5 mph - N/A   Clear
2:35 AM 37.4 °F 29.3 °F 32.0 °F 81% 30.12 in 10.0 mi NNW 12.7 mph - N/A   Clear
2:55 AM 37.4 °F 30.3 °F 32.0 °F 81% 30.12 in 10.0 mi NNW 10.4 mph - N/A   Clear
3:15 AM 37.4 °F 31.4 °F 32.0 °F 81% 30.13 in 10.0 mi NW 8.1 mph - N/A   Clear
3:35 AM 37.4 °F 30.3 °F 32.0 °F 81% 30.13 in 10.0 mi NW 10.4 mph - N/A   Clear
3:55 AM 37.4 °F 29.8 °F 32.0 °F 81% 30.14 in 10.0 mi NNW 11.5 mph - N/A   Clear
4:35 AM 37.4 °F 30.8 °F 32.0 °F 81% 30.16 in 10.0 mi NW 9.2 mph - N/A   Clear
4:55 AM 35.6 °F 28.6 °F 32.0 °F 87% 30.16 in 10.0 mi NW 9.2 mph - N/A   Clear
5:15 AM 33.8 °F 27.7 °F 32.0 °F 93% 30.17 in 10.0 mi NW 6.9 mph - N/A   Clear
5:35 AM 35.6 °F 30.7 °F 32.0 °F 87% 30.17 in 10.0 mi WNW 5.8 mph - N/A   Clear
5:55 AM 35.6 °F 30.7 °F 32.0 °F 87% 30.18 in 10.0 mi West 5.8 mph - N/A   Clear
6:15 AM 33.8 °F 28.6 °F 32.0 °F 93% 30.19 in 10.0 mi West 5.8 mph - N/A   Clear
6:35 AM 33.8 °F 28.6 °F 32.0 °F 93% 30.19 in 10.0 mi West 5.8 mph - N/A   Clear
6:55 AM 33.8 °F 28.6 °F 32.0 °F 93% 30.20 in 10.0 mi WNW 5.8 mph - N/A   Clear
7:15 AM 32.0 °F 25.6 °F 32.0 °F 100% 30.21 in 10.0 mi WNW 6.9 mph - N/A   Clear
7:35 AM 32.0 °F 24.8 °F 32.0 °F 100% 30.21 in 10.0 mi NW 8.1 mph - N/A   Clear
7:55 AM 35.6 °F 29.2 °F 32.0 °F 87% 30.21 in 10.0 mi NW 8.1 mph - N/A   Clear
8:15 AM 37.4 °F 30.8 °F 33.8 °F 87% 30.21 in 10.0 mi WNW 9.2 mph - N/A   Clear
8:35 AM 39.2 °F 33.0 °F 33.8 °F 81% 30.22 in 10.0 mi WNW 9.2 mph - N/A   Clear
8:55 AM 42.8 °F 38.0 °F 33.8 °F 70% 30.22 in 10.0 mi NW 8.1 mph - N/A   Clear
9:15 AM 42.8 °F 36.2 °F 33.8 °F 70% 30.22 in 10.0 mi NW 12.7 mph - N/A   Clear
9:35 AM 44.6 °F 39.7 °F 33.8 °F 66% 30.22 in 10.0 mi NW 9.2 mph - N/A   Clear
9:55 AM 44.6 °F 38.8 °F 35.6 °F 71% 30.22 in 10.0 mi NW 11.5 mph - N/A   Clear
10:15 AM 46.4 °F 42.4 °F 35.6 °F 66% 30.22 in 10.0 mi NW 8.1 mph - N/A   Clear
10:55 AM 48.2 °F - 35.6 °F 62% 30.22 in 10.0 mi NW 11.5 mph 19.6 mph N/A   Clear
11:15 AM 48.2 °F - 37.4 °F 66% 30.21 in 10.0 mi NW 9.2 mph - N/A   Clear
11:35 AM 50.0 °F - 37.4 °F 62% 30.21 in 10.0 mi NW 13.8 mph - N/A   Clear
11:55 AM 51.8 °F - 37.4 °F 58% 30.21 in 10.0 mi WNW 13.8 mph - N/A   Clear
12:15 PM 51.8 °F - 37.4 °F 58% 30.20 in 10.0 mi WNW 12.7 mph - N/A   Clear
12:35 PM 53.6 °F - 37.4 °F 54% 30.20 in 10.0 mi WNW 12.7 mph 19.6 mph N/A   Clear
12:55 PM 53.6 °F - 37.4 °F 54% 30.21 in 10.0 mi WNW 15.0 mph - N/A   Clear
1:15 PM 53.6 °F - 37.4 °F 54% 30.20 in 10.0 mi NW 13.8 mph 23.0 mph N/A   Clear
1:35 PM 53.6 °F - 37.4 °F 54% 30.20 in 10.0 mi WNW 17.3 mph 20.7 mph N/A   Clear
1:55 PM 55.4 °F - 37.4 °F 51% 30.21 in 10.0 mi NW 15.0 mph - N/A   Clear
2:15 PM 55.4 °F - 37.4 °F 51% 30.21 in 10.0 mi WNW 13.8 mph 20.7 mph N/A   Clear
2:35 PM 55.4 °F - 37.4 °F 51% 30.21 in 10.0 mi WNW 11.5 mph - N/A   Clear
2:55 PM 55.4 °F - 37.4 °F 51% 30.21 in 10.0 mi NW 11.5 mph - N/A   Clear
3:15 PM 55.4 °F - 37.4 °F 51% 30.21 in 10.0 mi NW 9.2 mph - N/A   Clear
3:35 PM 55.4 °F - 37.4 °F 51% 30.22 in 10.0 mi West 8.1 mph - N/A   Clear
4:15 PM 53.6 °F - 37.4 °F 54% 30.22 in 10.0 mi West 4.6 mph - N/A   Clear
4:35 PM 53.6 °F - 37.4 °F 54% 30.22 in 10.0 mi West 5.8 mph - N/A   Clear
4:55 PM 51.8 °F - 37.4 °F 58% 30.22 in 10.0 mi West 4.6 mph - N/A   Clear
5:15 PM 51.8 °F - 35.6 °F 54% 30.23 in 10.0 mi WSW 3.5 mph - N/A   Clear
5:35 PM 51.8 °F - 35.6 °F 54% 30.23 in 10.0 mi WSW 3.5 mph - N/A   Clear
5:55 PM 51.8 °F - 35.6 °F 54% 30.23 in 10.0 mi WSW 3.5 mph - N/A   Clear
6:15 PM 51.8 °F - 35.6 °F 54% 30.24 in 10.0 mi WSW 4.6 mph - N/A   Clear
6:35 PM 51.8 °F - 35.6 °F 54% 30.23 in 10.0 mi West 4.6 mph - N/A   Clear
6:55 PM 51.8 °F - 35.6 °F 54% 30.23 in 10.0 mi SW 4.6 mph - N/A   Clear
7:15 PM 50.0 °F - 35.6 °F 58% 30.23 in 10.0 mi WSW 3.5 mph - N/A   Clear
7:55 PM 48.2 °F - 35.6 °F 62% 30.23 in 10.0 mi West 4.6 mph - N/A   Clear
8:15 PM 50.0 °F - 35.6 °F 58% 30.23 in 10.0 mi WSW 5.8 mph - N/A   Clear
8:35 PM 50.0 °F - 35.6 °F 58% 30.23 in 10.0 mi West 5.8 mph - N/A   Clear
8:55 PM 48.2 °F - 35.6 °F 62% 30.24 in 10.0 mi WSW 4.6 mph - N/A   Clear
9:15 PM 48.2 °F - 35.6 °F 62% 30.24 in 10.0 mi WSW 3.5 mph - N/A   Clear
9:35 PM 48.2 °F - 35.6 °F 62% 30.24 in 10.0 mi WSW 3.5 mph - N/A   Clear
9:55 PM 48.2 °F - 35.6 °F 62% 30.24 in 10.0 mi SW 5.8 mph - N/A   Clear
10:15 PM 48.2 °F - 35.6 °F 62% 30.24 in 10.0 mi WSW 5.8 mph - N/A   Clear
10:55 PM 48.2 °F - 35.6 °F 62% 30.24 in 10.0 mi WSW 4.6 mph - N/A   Clear
11:15 PM 46.4 °F 44.3 °F 35.6 °F 66% 30.24 in 10.0 mi WSW 4.6 mph - N/A   Clear
11:35 PM 46.4 °F 43.5 °F 35.6 °F 66% 30.24 in 10.0 mi WSW 5.8 mph - N/A   Clear
11:55 PM 46.4 °F 42.9 °F 35.6 °F 66% 30.24 in 10.0 mi West 6.9 mph - N/A   Clear